Wind_Speed
18 17 16 14 13 12 10 9 9 8 7 5 4 4 4 4 4 4 4 4 5 5 5 5 6 7 7 8 8 9 10 10 11 11 12 13 14 14 15 15 14 14 14 14 13 13 13 13 13
20 19 18 17 15 14 12 11 10 9 8 6 5 5 5 5 5 5 5 6 6 6 6 7 8 8 8 8 9 10 10 11 11 12 13 14 14 15 15 15 15 15 15 14 14 14 14 14 14
22 20 19 18 16 15 14 13 12 11 10 9 7 7 6 6 6 7 8 7 8 8 8 8 9 9 9 9 10 11 11 12 12 13 13 14 15 16 16 16 15 15 15 15 15 15 15 15 15
23 21 20 18 17 16 15 14 13 11 11 9 8 8 8 7 7 8 9 8 9 9 9 9 9 10 10 11 11 11 12 13 13 14 15 15 16 16 16 17 17 16 16 16 16 16 16 16 16
23 22 20 19 18 17 16 15 14 13 14 12 10 9 10 9 8 9 9 10 10 9 10 10 10 11 11 11 12 13 13 14 15 16 16 17 17 17 17 18 17 17 17 17 17 17 17 17 17
23 22 21 19 18 19 16 14 15 16 15 11 11 12 11 10 9 10 11 11 10 10 11 11 11 12 12 13 14 14 15 15 16 16 17 18 18 18 18 18 18 18 18 18 18 18 18 18 18
23 22 21 20 19 18 15 14 14 16 16 14 12 11 10 10 9 10 12 11 11 11 11 12 12 12 13 14 14 15 15 16 16 17 18 18 19 19 19 19 19 19 19 19 19 19 19 19 19
24 23 22 19 18 17 15 14 15 16 15 14 13 12 13 13 12 11 12 11 12 12 13 13 13 13 14 15 15 16 17 17 18 18 19 20 20 21 20 20 20 19 19 20 20 20 20 20 20
23 23 21 19 19 18 17 17 17 17 17 15 13 14 14 14 14 12 12 13 13 13 13 14 14 15 15 16 17 17 18 18 19 20 20 21 21 21 21 21 20 20 20 20 20 20 20 20 21
22 21 20 20 20 19 18 18 19 18 17 15 14 14 14 14 14 14 14 12 12 13 14 15 16 16 16 17 18 19 19 20 20 21 22 22 22 22 22 21 21 20 20 20 19 20 20 20 20
21 20 19 19 19 19 20 19 19 19 18 16 15 14 14 15 13 13 14 14 14 14 15 16 16 16 17 17 18 19 20 21 21 22 23 23 22 22 22 22 21 21 20 21 21 21 21 21 21
20 19 19 20 19 20 20 19 18 17 16 14 13 14 14 14 14 14 16 16 15 16 17 17 16 17 18 18 19 20 20 21 22 23 23 23 22 22 22 22 22 22 22 22 22 22 22 22 22
18 18 18 18 19 18 19 18 18 16 16 14 14 14 14 15 16 15 16 16 15 16 17 17 16 17 18 19 20 21 21 22 23 23 23 23 23 23 24 23 23 23 23 22 22 23 23 23 24
16 17 17 18 18 17 17 17 16 16 15 14 14 15 14 14 15 16 17 17 16 17 18 18 18 18 19 19 20 21 22 22 22 23 23 24 24 24 24 24 24 24 23 23 24 25 25 25 25
14 15 14 15 15 15 16 17 16 15 14 14 14 14 14 14 15 16 17 17 17 18 19 20 19 19 20 21 21 21 22 23 23 23 23 24 24 24 25 25 25 25 24 24 25 26 26 26 27
11 13 12 13 15 15 17 17 16 15 15 16 15 13 13 14 16 18 18 18 19 20 20 21 21 21 21 22 22 22 23 24 24 24 25 25 25 26 25 26 26 26 26 26 26 27 27 28 28
10 11 11 12 13 15 16 15 14 14 14 15 14 13 14 14 16 17 18 19 20 20 20 21 22 23 23 24 24 24 24 24 25 26 25 26 27 27 27 26 27 27 26 27 27 28 29 28 28
10 9 10 11 11 13 15 14 14 14 15 14 13 13 13 15 16 18 19 20 20 21 21 21 22 23 24 25 25 25 25 26 27 27 27 28 28 27 27 28 27 27 27 27 27 28 28 28 29
7 8 9 10 11 12 13 14 14 15 15 14 14 15 14 15 16 19 19 20 20 21 23 23 23 24 25 25 25 25 26 27 27 27 27 28 28 28 28 29 28 28 28 28 29 29 29 29 29
7 8 9 9 10 12 13 14 15 16 16 16 16 17 15 15 16 18 19 21 21 23 25 25 24 25 25 25 25 26 26 25 26 26 27 28 28 29 29 28 28 28 29 29 30 29 29 29 29
7 8 8 8 10 11 13 14 16 16 17 17 17 17 16 16 17 17 19 21 23 24 24 24 25 25 25 25 26 26 26 25 25 26 26 26 26 27 28 27 28 29 30 29 29 28 28 28 28
5 7 8 8 10 12 14 16 16 16 16 16 16 17 18 18 19 19 20 21 22 23 23 23 25 25 25 25 25 25 25 26 26 26 26 25 26 27 27 27 28 29 28 28 28 28 27 26 26
5 7 9 10 12 13 13 16 16 17 18 16 17 17 18 19 19 20 21 23 23 24 24 25 25 25 25 25 25 26 26 27 27 26 25 26 26 26 27 27 27 27 26 27 27 27 26 25 25
8 10 10 10 12 13 12 14 14 15 15 16 18 18 18 19 19 21 23 24 24 25 26 26 26 25 25 25 25 26 26 27 26 26 26 26 26 26 26 25 25 25 25 25 25 24 24 23 22
9 12 12 13 14 14 14 17 16 15 16 17 17 18 18 20 21 21 23 25 25 25 26 26 26 25 25 25 26 26 26 26 26 26 26 25 25 25 25 25 25 24 25 24 23 23 22 21 20
10 12 13 15 15 15 16 17 16 16 16 16 17 18 19 20 22 23 24 25 25 25 25 25 25 24 24 24 25 25 25 26 26 26 26 25 25 25 24 24 24 24 23 23 22 21 20 19 19
11 13 13 15 17 17 17 16 16 16 16 17 18 19 19 21 23 23 24 24 24 24 23 23 23 24 23 23 23 24 25 25 25 25 24 24 24 23 23 23 23 22 22 22 21 20 20 19 18
14 15 16 17 18 19 17 16 17 17 19 19 19 19 21 22 23 23 24 23 22 22 21 22 23 22 22 22 22 23 24 25 24 24 24 23 22 22 21 20 20 20 21 20 20 19 18 17 16
17 18 18 19 19 20 20 18 18 20 20 20 21 22 23 23 23 22 22 22 21 20 21 21 20 20 20 21 22 23 24 23 23 23 22 21 20 20 20 19 19 19 19 19 18 18 16 16 15
18 19 20 22 21 21 23 22 20 20 21 21 22 22 22 22 21 20 20 20 19 19 19 19 19 19 19 20 21 22 22 22 21 21 20 19 19 19 19 18 17 17 17 17 17 16 15 14 14
Wind_Direction
210 208 206 206 208 208 207 205 207 210 221 227 239 268 294 298 296 291 296 296 303 307 300 302 301 298 298 299 297 296 297 297 297 297 297 296 297 298 298 295 292 292 293 293 293 291 289 287 285
210 208 208 208 209 210 209 215 213 217 231 243 255 270 277 284 283 284 286 292 295 300 298 299 298 297 298 299 299 297 296 295 294 294 293 292 292 294 294 293 290 289 289 288 288 287 285 285 284
209 209 209 208 211 212 214 219 227 229 234 247 259 263 264 271 283 286 284 288 292 293 295 295 296 295 294 295 295 295 294 293 293 292 290 290 291 292 292 291 290 288 288 288 288 287 285 285 283
209 209 210 210 210 214 221 226 240 245 247 250 258 262 263 266 275 283 285 288 289 291 292 291 292 293 293 291 291 292 292 293 293 292 292 293 293 293 291 290 288 287 287 287 285 285 284 283 282
208 209 209 208 211 213 222 230 239 248 252 251 256 259 265 267 272 278 284 286 288 289 292 291 289 290 292 293 292 291 291 290 291 290 290 291 292 291 292 290 289 287 285 284 284 284 283 281 280
207 208 209 209 213 218 226 236 244 251 248 252 262 259 264 261 267 275 282 290 291 291 290 289 290 290 292 293 294 294 292 290 290 291 290 290 290 291 292 291 290 286 284 283 282 281 280 279 278
206 206 208 208 213 220 231 244 254 257 260 267 263 259 268 265 268 274 281 284 286 289 288 286 287 288 291 293 294 297 296 293 292 292 292 292 293 293 293 291 290 286 283 282 281 280 280 277 276
206 206 206 206 211 221 230 242 255 260 258 260 260 268 271 273 271 270 274 280 284 286 286 284 284 287 290 295 296 296 297 297 295 293 292 293 293 294 292 292 290 288 285 282 280 278 280 279 277
206 205 206 208 213 221 231 243 253 265 260 265 268 271 270 272 269 270 274 278 282 284 286 284 284 286 291 295 296 297 297 296 295 295 294 294 293 292 291 290 289 289 286 284 282 279 280 281 279
205 205 206 212 218 225 234 242 251 260 261 262 268 270 268 272 271 271 277 278 280 283 285 284 282 283 289 293 295 296 295 294 293 293 294 293 292 292 291 290 289 288 285 282 282 281 281 282 280
204 203 207 213 220 227 234 242 251 255 258 258 263 272 272 272 270 273 275 275 278 282 284 286 287 286 291 292 293 296 295 293 294 294 293 293 292 291 289 291 289 288 286 284 282 282 282 281 280
204 203 208 214 222 228 235 242 249 256 256 261 265 268 277 276 270 272 280 272 277 285 286 286 289 292 292 294 295 297 296 293 294 294 294 293 292 291 290 290 290 288 286 284 282 282 281 280 281
203 207 211 215 222 232 241 250 255 260 264 265 272 279 279 284 282 279 285 288 281 286 287 288 291 293 294 295 296 296 295 293 294 294 295 295 292 291 290 288 287 288 286 284 282 283 282 281 281
205 213 216 220 226 235 244 253 261 265 267 270 275 279 278 284 282 281 285 287 286 289 290 292 292 292 293 294 294 295 296 294 295 294 293 294 293 291 290 287 285 285 286 283 282 282 281 280 281
205 211 215 216 223 236 244 252 261 263 267 274 279 280 282 288 287 286 288 286 289 289 289 292 291 291 293 294 293 295 295 294 294 295 294 294 293 292 291 288 286 285 285 283 282 281 280 278 280
207 214 214 214 224 234 248 254 260 264 269 274 280 287 292 294 292 288 288 289 290 290 292 294 295 295 296 295 294 294 295 294 294 295 295 295 295 294 291 289 288 287 284 284 284 283 281 279 279
210 213 221 219 227 235 246 255 259 261 269 274 283 291 295 293 290 286 288 289 291 293 296 297 298 298 297 296 295 295 296 296 295 294 295 295 296 295 291 290 290 289 286 286 286 285 282 280 279
210 219 227 229 232 239 248 255 257 260 271 276 284 290 292 290 288 291 290 291 292 293 295 297 298 298 297 297 296 296 295 297 297 296 295 295 295 294 292 290 290 290 290 288 287 287 284 281 278
221 230 236 236 238 246 252 256 258 267 275 278 287 291 289 291 290 291 292 293 297 294 296 297 297 297 297 297 297 296 295 296 297 296 295 294 294 293 293 292 290 291 291 290 288 287 285 283 279
232 234 237 241 249 253 256 258 263 269 275 282 287 291 293 290 288 292 292 292 294 295 295 295 293 294 296 296 296 296 295 295 296 296 296 296 295 294 294 294 291 291 291 291 290 289 286 284 280
231 242 249 255 249 256 264 262 267 271 277 279 283 289 289 286 289 292 294 293 293 295 295 294 293 294 294 296 297 297 296 296 297 297 298 297 296 294 293 293 293 292 292 291 291 291 288 284 281
250 256 265 268 269 272 273 269 269 270 275 278 280 287 290 290 292 291 294 293 294 296 295 294 295 294 293 295 297 297 296 297 298 299 300 298 296 294 295 295 295 294 293 293 293 292 289 286 283
271 283 278 272 273 277 279 280 276 274 278 284 289 290 294 296 296 299 300 300 298 298 297 296 295 293 293 293 295 296 297 298 299 301 301 298 296 295 295 296 296 297 295 294 294 294 292 290 285
279 280 278 274 277 281 286 285 286 292 295 293 294 296 301 303 304 303 304 303 301 301 299 297 295 292 292 292 294 294 296 299 299 301 302 300 299 298 296 297 297 298 297 296 295 295 295 291 287
283 284 286 282 280 279 284 286 292 291 295 298 296 298 303 306 304 304 306 306 304 301 300 298 295 294 293 294 295 295 296 299 300 301 302 301 301 302 300 299 298 297 295 294 295 294 295 292 290
282 285 292 293 291 289 288 291 294 294 297 304 307 305 306 307 307 305 306 306 305 303 302 301 298 296 295 296 296 296 298 300 302 302 301 300 300 301 301 301 300 299 297 294 293 294 294 292 290
278 285 290 292 295 299 299 300 299 302 301 300 304 305 306 309 308 307 307 306 305 305 304 302 299 296 296 296 296 298 300 302 302 301 300 300 301 301 302 301 300 300 297 295 294 294 294 291 291
277 282 284 287 289 293 297 300 303 305 305 300 301 305 310 312 312 309 309 308 307 305 304 303 302 300 298 300 301 302 304 304 303 302 299 299 301 302 303 303 302 301 300 297 296 296 294 290 291
273 277 279 283 287 289 291 295 302 306 305 304 303 304 308 310 313 312 313 312 310 309 308 305 304 303 303 304 304 304 305 305 306 305 302 301 301 302 304 306 306 304 300 298 297 297 295 292 292
272 275 280 283 285 286 288 294 301 303 306 304 303 305 309 311 313 311 312 313 312 310 310 308 306 304 305 306 308 310 310 309 308 308 305 303 304 306 308 309 309 307 305 305 302 297 295 294 296
Height
5899 5901 5903 5905 5907 5907 5908 5909 5909 5909 5909 5909 5909 5910 5911 5913 5914 5915 5913 5911 5911 5910 5910 5909 5909 5908 5908 5907 5907 5906 5906 5905 5904 5903 5902 5901 5900 5899 5898 5896 5895 5894 5892 5891 5889 5888 5887 5885 5884
5896 5899 5901 5903 5904 5905 5907 5907 5907 5907 5908 5908 5908 5909 5911 5911 5912 5911 5911 5910 5909 5909 5909 5908 5907 5907 5907 5906 5905 5905 5904 5903 5902 5901 5900 5899 5898 5897 5896 5894 5893 5892 5890 5889 5887 5886 5884 5883 5882
5893 5896 5899 5901 5902 5903 5905 5905 5906 5906 5906 5907 5907 5908 5909 5910 5910 5909 5909 5909 5908 5908 5907 5907 5906 5905 5905 5904 5904 5903 5902 5901 5900 5899 5898 5897 5896 5894 5893 5892 5891 5889 5888 5887 5885 5883 5882 5881 5879
5891 5894 5897 5899 5900 5901 5903 5904 5903 5904 5905 5905 5906 5907 5908 5909 5909 5908 5907 5907 5906 5906 5905 5905 5904 5904 5903 5903 5902 5901 5900 5899 5898 5897 5896 5894 5893 5892 5891 5890 5888 5887 5885 5884 5882 5881 5880 5878 5877
5887 5891 5894 5896 5897 5898 5899 5901 5901 5902 5903 5903 5904 5905 5906 5908 5907 5906 5906 5905 5905 5904 5904 5903 5903 5902 5901 5900 5899 5899 5898 5896 5895 5894 5893 5892 5891 5889 5888 5886 5885 5884 5882 5881 5879 5878 5877 5875 5874
5885 5888 5891 5893 5894 5895 5896 5898 5899 5900 5900 5901 5902 5903 5904 5906 5906 5905 5904 5903 5903 5902 5902 5901 5900 5900 5899 5898 5897 5896 5895 5894 5892 5891 5890 5889 5887 5886 5884 5883 5882 5880 5879 5877 5876 5874 5873 5872 5870
5883 5885 5888 5890 5891 5892 5894 5895 5895 5896 5896 5898 5899 5899 5901 5903 5903 5903 5902 5901 5901 5900 5900 5899 5898 5897 5896 5895 5894 5893 5892 5890 5889 5888 5886 5885 5883 5882 5880 5879 5878 5876 5875 5874 5872 5870 5869 5868 5866
5879 5883 5885 5887 5889 5890 5891 5891 5892 5893 5893 5895 5896 5898 5899 5901 5900 5900 5899 5898 5898 5898 5897 5896 5895 5894 5894 5892 5891 5890 5889 5887 5885 5884 5883 5881 5880 5878 5876 5875 5874 5872 5871 5870 5868 5866 5865 5863 5862
5876 5881 5883 5885 5886 5887 5888 5889 5889 5890 5891 5892 5894 5895 5896 5897 5897 5897 5897 5896 5896 5895 5894 5894 5893 5892 5891 5889 5888 5887 5885 5883 5882 5880 5878 5877 5875 5874 5872 5871 5869 5868 5866 5865 5864 5862 5861 5859 5858
5873 5878 5881 5883 5883 5884 5885 5886 5887 5887 5888 5890 5891 5893 5893 5894 5894 5894 5894 5893 5893 5893 5892 5891 5890 5889 5887 5886 5884 5883 5881 5879 5878 5876 5874 5873 5871 5869 5867 5866 5864 5863 5861 5860 5859 5857 5856 5854 5853
5870 5875 5878 5879 5880 5881 5883 5884 5884 5884 5885 5887 5888 5890 5890 5890 5890 5890 5890 5890 5890 5889 5888 5887 5886 5885 5883 5882 5881 5879 5877 5875 5873 5872 5870 5868 5866 5864 5863 5861 5859 5858 5857 5855 5854 5852 5851 5850 5848
5869 5872 5874 5876 5878 5879 5880 5880 5881 5881 5883 5884 5885 5887 5888 5887 5886 5887 5887 5886 5885 5885 5884 5883 5882 5881 5879 5878 5876 5874 5872 5870 5869 5867 5865 5863 5861 5859 5857 5856 5855 5853 5851 5850 5848 5847 5845 5844 5843
5867 5869 5871 5873 5875 5876 5877 5877 5879 5879 5881 5882 5883 5884 5884 5884 5884 5884 5883 5882 5882 5881 5880 5878 5877 5876 5875 5873 5872 5870 5868 5866 5864 5861 5859 5858 5855 5854 5852 5851 5849 5847 5846 5844 5842 5841 5840 5838 5837
5865 5866 5869 5871 5873 5874 5875 5875 5877 5878 5879 5880 5880 5881 5881 5881 5881 5880 5880 5879 5878 5877 5876 5875 5873 5871 5870 5868 5867 5865 5863 5861 5859 5856 5854 5852 5850 5848 5846 5845 5843 5841 5839 5837 5836 5834 5833 5832 5830
5863 5865 5867 5869 5870 5871 5873 5873 5874 5876 5877 5877 5878 5878 5878 5878 5877 5877 5876 5875 5874 5873 5872 5870 5868 5867 5865 5863 5861 5859 5857 5855 5853 5851 5848 5846 5844 5842 5840 5838 5836 5834 5832 5830 5829 5827 5825 5824 5823
5862 5864 5866 5868 5869 5870 5872 5871 5872 5873 5874 5874 5875 5875 5874 5874 5874 5873 5872 5871 5869 5868 5867 5866 5864 5861 5860 5858 5856 5854 5851 5849 5847 5844 5842 5840 5838 5835 5833 5831 5829 5827 5825 5823 5821 5820 5818 5817 5815
5862 5863 5864 5866 5866 5867 5868 5868 5869 5870 5870 5871 5871 5872 5871 5871 5870 5869 5867 5866 5865 5864 5863 5861 5859 5857 5854 5852 5850 5848 5846 5843 5841 5838 5836 5834 5831 5829 5826 5824 5822 5820 5818 5816 5814 5812 5810 5809 5807
5861 5862 5862 5864 5865 5865 5866 5866 5866 5867 5867 5867 5868 5868 5868 5867 5866 5865 5863 5861 5860 5859 5857 5855 5853 5851 5849 5847 5845 5842 5840 5838 5835 5832 5830 5827 5825 5822 5819 5817 5815 5813 5810 5808 5806 5804 5802 5800 5799
5860 5861 5861 5862 5862 5862 5862 5862 5863 5863 5863 5863 5864 5864 5863 5863 5862 5860 5858 5857 5855 5854 5852 5851 5849 5846 5844 5842 5839 5837 5834 5831 5829 5826 5823 5820 5818 5815 5812 5810 5807 5805 5802 5800 5798 5796 5794 5792 5790
5859 5859 5859 5860 5859 5860 5859 5860 5860 5860 5860 5859 5859 5859 5858 5858 5857 5856 5854 5853 5851 5849 5847 5845 5843 5841 5838 5835 5833 5831 5828 5825 5822 5819 5816 5813 5810 5807 5804 5802 5799 5797 5794 5792 5790 5787 5785 5783 5781
5857 5858 5858 5858 5858 5858 5857 5857 5857 5857 5856 5856 5855 5855 5855 5854 5853 5852 5850 5848 5847 5844 5842 5839 5837 5834 5832 5829 5827 5825 5822 5819 5816 5813 5809 5806 5803 5800 5797 5794 5791 5789 5786 5783 5781 5779 5777 5775 5773
5855 5856 5856 5856 5856 5856 5856 5854 5854 5854 5853 5852 5851 5851 5850 5850 5849 5847 5845 5843 5840 5837 5835 5833 5831 5829 5826 5824 5822 5819 5816 5813 5810 5806 5803 5799 5796 5793 5790 5787 5784 5781 5778 5775 5773 5771 5769 5766 5764
5854 5853 5853 5853 5853 5853 5852 5851 5851 5850 5849 5848 5847 5846 5846 5844 5844 5842 5840 5837 5835 5832 5830 5828 5825 5823 5821 5818 5816 5813 5810 5807 5803 5799 5796 5792 5789 5786 5783 5780 5776 5773 5771 5768 5766 5763 5761 5759 5757
5852 5852 5851 5851 5850 5850 5849 5848 5847 5846 5846 5845 5844 5843 5841 5840 5839 5837 5835 5831 5829 5827 5824 5821 5819 5816 5814 5812 5810 5807 5804 5800 5797 5793 5789 5786 5783 5780 5776 5773 5770 5767 5764 5761 5759 5756 5754 5752 5750
5850 5850 5849 5848 5847 5847 5846 5844 5844 5843 5842 5841 5840 5838 5837 5835 5833 5831 5829 5826 5823 5820 5817 5814 5811 5809 5807 5805 5803 5800 5797 5793 5790 5786 5783 5780 5777 5773 5770 5767 5764 5760 5758 5755 5752 5750 5748 5746 5744
5848 5847 5847 5845 5844 5843 5842 5840 5841 5839 5838 5836 5835 5833 5832 5830 5827 5825 5823 5820 5817 5814 5811 5807 5805 5803 5800 5798 5796 5793 5790 5787 5783 5780 5777 5774 5770 5767 5764 5760 5757 5754 5751 5749 5746 5744 5742 5740 5738
5845 5844 5843 5842 5840 5839 5838 5837 5836 5835 5833 5832 5830 5829 5827 5825 5822 5819 5816 5814 5811 5807 5805 5802 5799 5797 5794 5791 5789 5786 5783 5780 5777 5773 5770 5767 5763 5760 5757 5754 5751 5748 5745 5743 5741 5739 5737 5735 5733
5843 5842 5841 5839 5837 5835 5835 5834 5833 5831 5829 5828 5826 5825 5822 5820 5817 5814 5811 5808 5805 5802 5799 5796 5794 5791 5788 5786 5783 5780 5776 5773 5769 5766 5763 5760 5758 5754 5751 5748 5746 5743 5740 5737 5735 5733 5731 5730 5728
5840 5839 5837 5835 5834 5831 5830 5832 5830 5827 5825 5823 5822 5820 5817 5815 5812 5809 5806 5803 5801 5797 5794 5792 5789 5786 5783 5781 5778 5774 5770 5766 5763 5760 5757 5754 5752 5749 5746 5743 5741 5738 5735 5732 5730 5728 5726 5725 5723
5836 5834 5833 5831 5830 5828 5826 5828 5825 5823 5820 5818 5817 5814 5812 5810 5807 5804 5801 5799 5796 5793 5790 5787 5784 5781 5779 5776 5772 5768 5764 5761 5758 5755 5752 5749 5746 5744 5741 5739 5736 5733 5730 5728 5725 5723 5722 5720 5719